Theta_e
319 318 317 317 317 317 316 314 309 303 304 310 310 317 315 315 316 316 316 312 309 309 309 310 310 309 310 311 311 311 312 313 313 315 317 317 319 321
314 315 315 316 315 315 313 312 311 306 303 308 309 312 314 314 314 313 312 308 309 309 307 306 307 307 306 307 307 309 310 311 310 311 313 313 315 318
314 314 313 313 312 311 310 310 308 307 303 306 309 311 312 311 311 310 308 308 307 307 305 305 305 304 304 305 306 307 307 307 310 308 310 312 314 315
312 310 308 309 310 309 307 308 306 307 305 302 306 307 308 307 306 304 305 306 307 307 305 304 303 303 304 303 302 302 302 303 304 305 307 309 313 314
308 306 307 308 307 306 306 305 305 304 305 302 302 305 304 303 301 304 305 305 305 305 305 304 304 303 301 301 301 302 302 303 304 305 307 309 311 312
307 308 306 305 304 304 303 304 303 302 302 301 300 298 297 299 301 301 299 303 301 303 305 304 303 302 303 302 303 303 303 303 303 303 304 305 305 307
307 306 304 303 300 301 301 301 300 297 296 295 295 294 294 295 297 299 298 299 299 303 301 300 301 304 306 306 306 304 300 300 300 301 302 302 302 303
303 303 303 301 301 299 298 297 295 294 294 293 293 293 295 295 298 296 296 293 289 300 296 295 302 303 305 306 302 300 299 300 301 302 302 302 302 302
301 301 299 299 299 299 298 297 296 293 293 294 293 293 294 296 295 294 294 292 291 293 294 292 300 300 303 301 301 300 300 300 299 301 300 300 300 300
300 299 298 297 294 294 295 295 295 296 295 294 293 293 294 294 295 293 292 291 293 294 294 290 297 295 297 302 300 298 299 298 299 299 299 299 299 298
297 295 296 294 291 290 294 293 294 294 294 293 292 291 290 291 291 293 290 287 286 289 293 291 293 293 294 296 299 300 299 300 299 299 299 299 299 298
295 294 290 290 289 289 293 291 290 290 292 292 293 294 293 294 294 295 292 286 285 286 291 289 291 291 289 298 298 299 298 299 299 300 300 300 299 307
292 291 290 287 287 287 288 288 287 289 291 291 291 292 292 293 294 295 294 290 286 286 291 291 291 291 290 290 295 297 299 298 302 305 301 300 300 301
291 290 289 287 287 287 287 285 287 289 290 290 289 289 290 290 291 293 295 293 292 290 292 293 290 289 288 288 288 295 296 298 299 300 302 301 301 300
291 289 288 287 287 288 287 286 288 289 288 288 287 289 290 291 292 293 295 296 294 295 293 292 291 290 288 287 288 291 293 298 301 299 299 299 299 302
291 291 289 288 288 288 288 288 288 288 287 287 288 289 291 290 290 291 291 292 290 291 292 292 292 291 288 290 291 292 296 293 296 296 296 297 302 300
292 291 289 288 288 288 288 288 287 287 286 287 288 288 288 288 288 291 291 291 288 287 287 289 291 292 292 292 291 295 294 292 294 294 295 295 302 299
290 288 287 287 286 286 286 286 287 285 286 286 287 287 286 286 287 289 290 289 288 287 286 287 288 288 292 294 297 293 293 292 293 294 295 296 300 299
288 288 287 286 286 286 286 286 285 286 286 286 286 286 286 286 287 288 288 288 287 288 286 287 286 286 285 283 291 297 291 292 292 293 295 299 298 296
288 287 286 286 286 286 286 285 286 286 286 286 286 286 286 286 287 287 287 286 286 288 287 286 285 285 283 284 285 290 293 293 292 292 294 296 298 297
288 287 287 286 286 286 286 286 286 286 286 286 286 286 286 286 287 287 287 284 286 288 286 284 285 286 288 290 288 291 295 295 296 293 294 295 301 296
288 287 287 287 286 286 286 286 286 286 286 286 286 286 286 286 286 287 286 287 288 288 287 288 288 288 288 287 286 289 293 295 296 296 295 294 295 290
288 287 287 286 286 286 286 285 285 285 285 285 286 286 285 285 286 287 288 288 288 289 288 286 286 287 286 286 286 288 293 294 294 294 294 295 294 294
Wind_Speed
5 5 4 4 4 5 5 6 7 8 10 10 13 14 12 12 13 14 15 20 26 21 22 22 23 25 25 25 25 24 22 20 20 21 20 22 22 22
5 5 5 5 5 5 5 6 6 7 7 11 11 14 13 12 14 14 15 22 21 20 23 25 25 26 26 25 25 23 22 21 22 21 21 23 23 23
6 7 8 7 5 6 6 6 7 8 11 11 11 12 15 14 15 15 15 15 14 19 24 25 25 26 25 22 21 20 22 24 22 22 21 21 21 21
9 8 7 5 8 7 7 8 8 9 9 13 13 12 13 15 14 17 13 14 15 20 26 26 23 22 22 23 24 22 21 21 21 21 20 20 20 20
8 7 8 8 8 8 8 8 8 8 9 10 11 11 11 11 14 14 14 16 13 23 22 18 17 23 24 24 22 20 18 15 15 16 16 16 17 20
8 8 9 10 10 10 9 10 9 10 10 10 11 11 11 13 12 13 15 14 15 16 13 16 22 21 19 17 19 17 14 12 13 14 14 14 15 17
8 7 9 10 12 11 8 10 11 11 10 11 11 11 12 13 14 13 15 15 16 11 14 14 15 12 11 13 13 15 21 18 16 16 16 15 14 15
9 8 8 12 11 10 12 12 10 11 11 10 10 12 13 13 12 14 14 14 12 7 17 16 12 11 11 12 19 16 17 16 15 16 14 13 12 11
10 9 9 9 12 11 11 11 9 9 11 11 12 13 14 14 15 15 16 14 13 14 14 13 12 13 11 14 12 14 15 14 16 13 14 14 12 12
11 10 10 11 13 13 11 11 11 11 12 10 11 12 12 14 13 13 14 15 14 11 11 7 13 11 15 12 9 12 15 17 15 16 16 16 15 13
11 13 11 12 15 18 11 13 13 12 12 12 10 10 11 12 13 11 11 11 12 13 8 9 9 14 11 9 5 14 19 14 15 17 17 17 15 14
9 10 19 14 15 17 12 13 13 14 15 16 14 12 13 12 12 12 10 10 11 8 6 9 10 9 7 8 12 9 11 16 20 16 14 16 15 9
7 8 10 16 15 17 14 13 13 15 14 11 11 11 12 12 11 12 13 10 9 9 13 10 8 10 6 11 12 11 9 12 14 12 10 12 13 12
8 8 9 12 12 13 13 15 13 13 10 10 11 11 13 13 14 14 15 13 9 12 13 11 8 10 11 13 12 10 12 10 9 9 10 15 14 12
8 8 9 10 9 8 12 15 14 11 11 11 12 12 12 13 15 15 15 16 16 8 9 11 10 12 10 9 10 11 12 9 8 12 10 10 10 8
6 9 7 6 7 9 10 12 11 11 11 11 12 12 12 13 13 14 15 14 13 14 12 12 13 12 12 9 10 11 7 8 12 11 11 10 6 6
5 8 9 9 10 10 10 11 11 11 12 12 12 13 13 14 14 14 14 14 14 15 15 13 13 14 11 13 9 7 8 10 9 12 11 8 3 7
8 9 9 10 11 11 11 11 11 13 12 12 12 13 13 14 14 14 14 14 15 14 14 14 15 13 13 4 4 7 8 9 12 11 9 6 5 9
9 9 9 9 10 10 10 11 11 11 11 11 12 13 13 13 15 14 15 15 16 14 13 12 13 13 15 12 6 7 10 12 12 11 7 5 6 8
9 9 9 9 9 9 10 10 9 10 11 11 12 12 13 13 14 15 15 17 16 15 15 13 13 14 13 9 7 8 13 11 11 11 7 4 1 6
8 8 7 8 8 9 9 9 10 10 11 11 11 12 12 13 14 14 15 20 18 16 16 15 14 19 10 9 6 6 8 14 14 13 9 3 1 6
6 7 7 8 8 9 9 9 10 11 11 11 12 12 12 13 14 15 15 16 17 16 14 14 14 12 9 10 11 12 6 8 10 20 25 21 3 6
6 7 7 7 8 8 9 9 10 10 11 12 12 11 12 12 14 14 14 15 16 16 17 16 14 12 10 11 11 10 10 9 8 10 14 25 28 27
Wind_Direction
70 49 13 9 357 342 330 326 332 318 318 318 322 322 326 327 326 320 317 323 315 310 311 311 307 305 304 303 302 300 296 292 297 293 286 287 288 281
49 42 24 21 16 2 347 344 337 322 305 312 317 319 325 322 321 317 317 309 308 306 311 311 308 309 307 304 300 296 295 289 293 296 288 285 280 278
57 54 49 32 18 4 346 351 337 331 311 316 313 322 318 322 323 323 314 310 308 310 310 307 307 305 306 306 304 306 301 297 290 291 284 283 282 281
63 62 41 22 9 3 344 351 344 332 324 317 319 312 324 326 322 321 317 314 316 308 317 308 308 306 307 308 305 300 298 295 289 281 282 277 278 279
72 55 37 20 15 3 1 355 348 333 322 318 313 322 323 328 325 319 323 318 317 320 315 311 314 312 307 306 306 306 297 289 279 274 274 276 279 279
72 54 40 31 17 4 3 0 350 330 330 319 324 327 331 336 321 329 323 324 330 324 315 332 313 313 302 303 305 308 309 315 307 294 287 284 280 274
66 47 49 27 21 19 2 1 349 339 331 331 330 330 334 335 331 329 318 324 331 320 331 327 323 316 319 313 307 330 321 310 304 297 292 285 281 276
58 45 38 32 23 22 11 3 2 349 343 335 332 331 328 325 327 325 318 330 327 331 325 319 313 318 326 323 338 320 313 305 305 305 301 292 286 283
52 44 40 36 15 0 359 352 1 1 358 329 331 328 322 331 328 323 325 319 312 312 312 311 313 326 332 319 317 320 315 317 318 309 309 299 289 280
60 46 37 30 22 355 358 358 357 358 359 346 333 327 325 327 326 324 318 317 308 314 321 289 330 324 320 314 334 311 307 311 307 309 305 301 294 286
64 43 30 31 17 0 8 3 357 360 347 346 327 314 317 312 325 322 338 327 324 326 323 317 322 317 313 303 301 321 313 311 299 298 297 297 291 283
60 51 47 29 19 12 15 5 358 353 345 344 348 347 346 344 338 348 342 331 327 320 335 320 320 336 309 299 329 307 318 315 315 303 299 301 293 298
52 46 42 19 18 15 11 17 354 324 346 348 347 348 347 350 352 349 346 332 313 295 297 317 313 312 292 308 310 316 310 319 315 316 309 289 279 269
50 43 43 16 10 27 13 359 339 342 358 356 356 355 351 349 346 340 338 337 322 295 301 313 300 307 301 300 297 309 310 307 297 302 317 307 290 274
54 48 27 29 7 28 22 8 2 9 2 3 357 353 348 343 334 341 337 344 336 326 320 315 303 301 296 281 291 302 307 314 309 329 319 310 303 301
56 47 31 18 37 22 15 17 15 11 2 1 352 348 345 349 348 346 339 346 337 339 337 332 324 314 306 296 295 297 322 321 320 321 315 305 304 340
40 44 32 26 23 19 17 19 13 8 6 360 355 351 353 347 350 342 342 341 343 337 334 339 334 323 298 295 296 311 328 324 323 319 323 319 358 353
55 43 34 26 22 14 10 10 12 8 3 356 355 354 355 345 345 342 344 347 344 341 336 335 335 337 340 301 319 317 344 328 328 323 326 306 1 8
51 41 34 24 17 13 9 9 5 4 354 357 355 352 353 341 343 343 347 349 346 340 339 338 340 343 340 342 307 355 349 332 331 333 337 352 17 13
46 36 28 20 14 11 7 4 358 360 355 356 354 354 351 345 341 346 349 347 342 343 337 344 345 341 333 324 318 313 333 331 338 347 335 316 55 26
42 37 25 16 12 9 5 0 356 360 350 353 355 355 347 344 341 347 346 342 334 350 341 342 334 323 305 303 320 317 340 346 351 7 344 292 33 30
33 30 22 16 11 7 3 359 356 359 355 355 352 351 346 341 343 346 347 339 348 346 343 331 337 338 341 345 335 327 341 351 356 25 37 41 337 72
28 19 16 13 9 6 1 359 356 357 353 350 346 345 342 342 342 344 339 345 345 345 350 340 340 346 343 341 335 333 351 1 2 22 41 46 62 68